Location: Brunsbüttel
(52.3892°N, 10.6138°E)
Time: 20:55:38
(UTC+00:00)

COSMOS 2428 - Pass Details

Date: 19 May 2025
Orbit: 845 x 853 km, 70.9° (Epoch: 15 June)

Event Time Altitude Azimuth Distance (km) Brightness Sun altitude
Rises 22:54:39 0° 329° (NNW) 3,434 7.0 -17.5°
Reaches altitude 10° 22:57:21 10° 338° (NNW) 2,495 6.3 -17.5°
Maximum altitude 23:02:33 34° 43° (NE) 1,372 4.2 -17.6°
Drops below altitude 10° 23:07:44 10° 109° (ESE) 2,485 4.9 -17.6°
Enters shadow 23:09:54 - 117° (ESE) 3,232 5.5 -17.6°
